Hourly Data Report for October 14, 2016

TORONTO CITY
ONTARIO

43°40'00.000" N
79°24'00.000" W
112.50 m
6158355
71508
XTO

Download Data

Hourly Data (October 2016)
Hourly Data Report for October 14, 2016
TIME
LST
Temp Definition
°C
Dew Point Definition
°C
Rel Hum Definition
%
Precip. Amount Definition
mm

Wind Dir Definition
10's deg

Wind Spd Definition
km/h
Visibility Definition
km
Stn Press Definition
kPa
Hmdx Definition


Wind Chill Definition


Weather Definition


00:00 6.3 2.0 74 0.0 LegendMM LegendMM   101.35     LegendNANA
01:00 6.5 1.7 72 0.0 LegendMM LegendMM   101.36     LegendNANA
02:00 5.9 2.3 78 0.0 LegendMM LegendMM   101.39     LegendNANA
03:00 6.8 2.6 75 0.0 LegendMM LegendMM   101.36     LegendNANA
04:00 7.5 3.1 74 0.0 LegendMM LegendMM   101.38     LegendNANA
05:00 8.5 2.9 68 0.0 LegendMM LegendMM   101.43     LegendNANA
06:00 8.6 3.2 69 0.0 LegendMM LegendMM   101.47     LegendNANA
07:00 8.4 3.2 70 0.0 LegendMM LegendMM   101.52     LegendNANA
08:00 9.6 3.0 63 0.0 LegendMM LegendMM   101.55     LegendNANA
09:00 10.9 3.5 60 0.0 LegendMM LegendMM   101.58     LegendNANA
10:00 12.0 4.5 60 0.0 LegendMM LegendMM   101.58     LegendNANA
11:00 12.7 2.3 49 0.0 LegendMM LegendMM   101.56     LegendNANA
12:00 13.7 4.0 52 0.0 LegendMM LegendMM   101.52     LegendNANA
13:00 13.8 2.5 46 0.0 LegendMM LegendMM   101.43     LegendNANA
14:00 13.9 2.2 45 0.0 LegendMM LegendMM   101.37     LegendNANA
15:00 13.8 2.7 47 0.0 LegendMM LegendMM   101.34     LegendNANA
16:00 13.2 3.5 52 0.0 LegendMM LegendMM   101.32     LegendNANA
17:00 13.2 3.6 52 0.0 LegendMM LegendMM   101.32     LegendNANA
18:00 12.9 4.4 56 0.0 LegendMM LegendMM   101.30     LegendNANA
19:00 13.3 4.8 56 0.0 LegendMM LegendMM   101.29     LegendNANA
20:00 13.1 5.6 61 0.0 LegendMM LegendMM   101.28     LegendNANA
21:00 13.3 5.8 60 0.0 LegendMM LegendMM   101.21     LegendNANA
22:00 13.2 6.1 62 0.0 LegendMM LegendMM   101.14     LegendNANA
23:00 12.9 5.1 59 0.0 LegendMM LegendMM   101.15     LegendNANA

Notes on Data Quality.

Legend

  • E = Estimated
  • M = Missing
  • NA = Not Available*
  • [empty] = Indicates an unobserved value
Date modified: